OPS 5805

导读

OPS 5805是美国于1980年12月13日发射的一颗军事侦察卫星,归属美国国家侦察局保密项目。它采用OPS编号体系,这是冷战时期美国掩盖军用卫星真实任务的常用命名方式。作为早期空间侦察体系的一环,该卫星主要承担图像或信号情报搜集任务,服务于美国战略监测需求。其具体轨道参数和任务细节长期未公开,体现了冷战空间对抗的保密特征。退役后,它留轨成为空间碎片,是美国早期航天军事化发展的历史见证。

基本信息
目录编号:
12093
目录名称:
OPS 5805
国际标识:
1980-100A
轨道中心:
EARTH
卫星名称:
OPS 5805
卫星全名:
--
卫星状态:
在轨 (已飞行16649 天)
发射日期:
1980-12-13 UTC
国别 :
美国 (US)
星等 :
--
轨道信息
数据来源 国际轨道数据 AOE轨道数据
星历时间 2026-07-13T06:01:32+0800
1天前
查看轨道信息
2026-07-11T17:00:00+0800
2天前
查看轨道信息
半长轴 26575.598km 26575.014km
偏心率 0.6424429 0.6424826
轨道倾角 63.898° 63.900°
近地点辐角 267.685° 267.699°
升交点赤经 200.196° 200.331°
平近点角 22.925° 349.964°
近地点 3124.156km 3122.892km
远地点 37270.766km 37270.862km
周期 718.595分钟 718.571分钟
每日圈数 2.00391 2.003976
详细信息
使用方式:
暂无
2D轨道图
3D轨道图
轨道高度分析图
轨道倾角分析图
轨道综合分析图
查看轨道综合分析图